OPS 4682 DEB, 38379

Orbit data source: Space-Track

OPS 4682 DEB, 38379 is space debris in LEO originally from a launch on Sat, 03 Apr 1965 UTC launched from the Air Force Western Test Range (AFWTR). Debris objects in space refer to the collection of defunct objects orbiting the Earth. Examples of debris include non-operational satellites, rocket bodies, and fragments generated from explosions, collisions, or faulty payload assembly.

Loading next visibility...
Identifier
38379, 1965-027CG
Orbit
LEO
Country
Flag of USUS
Related business
Manufacturer
Unknown
Mission
Spacecraft
Bus & Motor
Unknown
Mass
Unknown
Launch date (UTC)
1965-04-03 (61 years ago)
Launch vehicle
Unknown
Launch site
Air Force Western Test Range (AFWTR)
Object type
Payload
Rocket body
Debris
Shape & HBR
Unknown shape, 0.1 m
Radar Cross Section
Medium (>0.1 m² and <1 m²)

Expand to show TLE details & history
Last TLE update: 11 hours ago

TLE from 11 hours ago
0 OPS 4682 DEB
1 38379U 65027CG  26150.05360966  .00000776  00000-0  25339-2 0  9993
2 38379  90.2366   3.6635 0025769 287.8095  72.0217 13.00520888630103
Epoch: 2026-05-30T01:17Z
TLE epoch observation values (Epoch: 2026-05-30T01:17:11.874Z)
Latitude
0.00003°
Longitude
96.78887°
Altitude
1,256.9 km
Speed
7.23 km/s
True Right ascension
00h 14m 39s
True Declination
0° 00' 00"
Sunlit
Object was in daylight at epoch
Visualization orbit readout
Latitude
Unknown
Longitude
Unknown
Altitude
Unknown
Speed
Unknown
Apparent Right ascension
Unknown
Apparent Declination
Unknown
Sunlit
N/A
Visualization observer readout
Local Sidereal Time
22:06:46
Azimuth
Unknown
Elevation
Unknown
Doppler factor
Unknown
Orbital elements
Apogee altitude
1,276.848 km
Perigee altitude
1,237.497 km
Semi-major axis
7,635.31 km
Eccentricity
0.00258
Inclination
90.2366°
RAAN
3.6635°
Arg. of periapsis
287.8095°
True anomaly
72.30285°
Mean anomaly
72.0217°
Eccentric anomaly
72.16225°
Mean motion
3.25314 °/min
Orbital period
110.66 mins
BSTAR
0.0025339
Loading maneuver chart data...
Computing Atmospheric mass density...
Loading historical data...
Loading historical data...
Loading historical data...
Loading historical data...
Loading historical data...
Loading historical data...
Loading historical data...

Documentation

Showing up to 5 results
|